Time+07,TemperatureF,Dew PointF,Humidity,Sea Level PressureIn,VisibilityMPH,Wind Direction,Wind SpeedMPH,Gust SpeedMPH,PrecipitationIn,Events,Conditions,WindDirDegrees,DateUTC
12:00 AM,78.8,75.2,89,29.71,6.2,NW,6.9,-,N/A,,Overcast,320,2013-09-18 17:00:00
12:30 AM,78.8,75.2,89,29.71,6.2,West,6.9,-,N/A,,Overcast,270,2013-09-18 17:30:00
1:00 AM,78,75,88,29.71,6,West,5.8,,,,Partly Cloudy,270,2013-09-18 18:00:00
1:00 AM,78.8,75.2,89,29.68,6.2,West,5.8,-,N/A,,Overcast,270,2013-09-18 18:00:00
1:30 AM,78.8,75.2,89,29.68,6.2,West,6.9,-,N/A,,Overcast,270,2013-09-18 18:30:00
2:00 AM,78.8,73.4,83,29.65,6.2,West,8.1,-,N/A,,Overcast,270,2013-09-18 19:00:00
2:30 AM,78.8,73.4,83,29.65,6.2,West,6.9,-,N/A,,Overcast,270,2013-09-18 19:30:00
3:00 AM,78.8,73.4,83,29.65,6.2,West,9.2,-,N/A,,Mostly Cloudy,270,2013-09-18 20:00:00
3:30 AM,78.8,75.2,89,29.65,6.2,WSW,8.1,-,N/A,,Mostly Cloudy,250,2013-09-18 20:30:00
4:00 AM,78.8,75.2,89,29.65,6.2,West,5.8,-,N/A,,Mostly Cloudy,260,2013-09-18 21:00:00
4:30 AM,78.8,75.2,89,29.62,6.2,WSW,6.9,-,N/A,,Mostly Cloudy,250,2013-09-18 21:30:00
5:00 AM,78.8,75.2,89,29.65,6.2,West,6.9,-,N/A,,Mostly Cloudy,270,2013-09-18 22:00:00
5:30 AM,78.8,75.2,89,29.65,6.2,West,8.1,-,N/A,,Mostly Cloudy,260,2013-09-18 22:30:00
6:00 AM,78.8,73.4,83,29.65,6.2,West,6.9,-,N/A,,Mostly Cloudy,280,2013-09-18 23:00:00
6:30 AM,78.8,73.4,83,29.65,6.2,WNW,5.8,-,N/A,,Mostly Cloudy,290,2013-09-18 23:30:00
7:00 AM,80,72,71,29.66,6,WNW,5.8,,,,Scattered Clouds,300,2013-09-19 00:00:00
7:00 AM,78.8,71.6,78,29.65,6.2,WNW,5.8,-,N/A,,Mostly Cloudy,300,2013-09-19 00:00:00
7:30 AM,80.6,71.6,74,29.65,6.2,West,5.8,-,N/A,,Mostly Cloudy,280,2013-09-19 00:30:00
8:00 AM,80.6,73.4,79,29.68,6.2,WNW,8.1,-,N/A,,Mostly Cloudy,290,2013-09-19 01:00:00
8:30 AM,80.6,73.4,79,29.68,6.2,West,6.9,-,N/A,,Mostly Cloudy,270,2013-09-19 01:30:00
9:00 AM,80.6,73.4,79,29.68,6.2,West,9.2,-,N/A,,Mostly Cloudy,270,2013-09-19 02:00:00
9:30 AM,82.4,73.4,74,29.68,6.2,WNW,6.9,-,N/A,,Mostly Cloudy,290,2013-09-19 02:30:00
10:00 AM,82.4,73.4,74,29.68,6.2,WNW,9.2,-,N/A,,Mostly Cloudy,290,2013-09-19 03:00:00
10:30 AM,82.4,73.4,74,29.68,6.2,WNW,11.5,-,N/A,,Mostly Cloudy,290,2013-09-19 03:30:00
11:00 AM,82.4,73.4,74,29.68,6.2,WNW,8.1,-,N/A,,Mostly Cloudy,290,2013-09-19 04:00:00
11:30 AM,84.2,73.4,70,29.68,6.2,WNW,11.5,-,N/A,,Mostly Cloudy,290,2013-09-19 04:30:00
12:00 PM,84.2,71.6,66,29.68,6.2,WNW,8.1,-,N/A,,Mostly Cloudy,290,2013-09-19 05:00:00
12:30 PM,86.0,71.6,62,29.65,6.2,West,9.2,-,N/A,,Mostly Cloudy,270,2013-09-19 05:30:00
1:00 PM,85,73,59,29.65,6,West,9.2,,,,Partly Cloudy,270,2013-09-19 06:00:00
1:00 PM,86.0,73.4,66,29.65,6.2,West,9.2,-,N/A,,Mostly Cloudy,270,2013-09-19 06:00:00
1:30 PM,86.0,73.4,66,29.62,6.2,West,6.9,-,N/A,,Mostly Cloudy,270,2013-09-19 06:30:00
2:00 PM,84.2,73.4,70,29.62,6.2,West,11.5,-,N/A,Rain,Light Rain,270,2013-09-19 07:00:00
2:30 PM,84.2,73.4,70,29.59,5.6,West,10.4,-,N/A,Rain,Light Rain,270,2013-09-19 07:30:00
3:00 PM,84.2,73.4,70,29.59,5.6,West,10.4,-,N/A,Rain,Light Rain,270,2013-09-19 08:00:00
3:30 PM,84.2,73.4,70,29.59,5.6,West,6.9,-,N/A,Rain,Light Rain,270,2013-09-19 08:30:00
4:00 PM,82.4,75.2,79,29.59,5.6,WSW,8.1,-,N/A,Rain,Light Rain,250,2013-09-19 09:00:00
4:30 PM,82.4,77.0,84,29.59,5.6,WSW,11.5,-,N/A,Rain,Light Rain,250,2013-09-19 09:30:00
5:00 PM,82.4,77.0,84,29.59,6.2,WSW,8.1,-,N/A,Rain,Light Rain,250,2013-09-19 10:00:00
5:30 PM,82.4,77.0,84,29.59,6.2,West,4.6,-,N/A,Rain,Light Rain,270,2013-09-19 10:30:00
6:00 PM,82.4,77.0,84,29.59,6.2,West,6.9,-,N/A,Rain,Light Rain,270,2013-09-19 11:00:00
6:30 PM,82.4,77.0,84,29.59,6.2,SSW,8.1,-,N/A,Rain,Light Rain,200,2013-09-19 11:30:00
7:00 PM,81,77,83,29.62,6,SSW,5.8,,,Rain,Light Rain,200,2013-09-19 12:00:00
7:00 PM,80.6,77.0,89,29.59,6.2,SSW,5.8,-,N/A,Rain,Light Rain,200,2013-09-19 12:00:00
7:30 PM,80.6,77.0,89,29.62,5.0,SSW,9.2,-,N/A,Rain,Light Rain,200,2013-09-19 12:30:00
8:00 PM,80.6,77.0,89,29.65,5.6,West,5.8,-,N/A,Rain,Light Rain,260,2013-09-19 13:00:00
8:30 PM,80.6,77.0,89,29.65,5.6,West,6.9,-,N/A,Rain,Light Rain,260,2013-09-19 13:30:00
9:00 PM,80.6,77.0,89,29.65,5.6,West,5.8,-,N/A,Rain,Light Rain,260,2013-09-19 14:00:00
9:30 PM,78.8,77.0,94,29.68,4.3,West,6.9,-,N/A,Rain,Light Rain,270,2013-09-19 14:30:00
10:00 PM,78.8,77.0,94,29.68,4.3,West,6.9,-,N/A,Rain,Light Rain,270,2013-09-19 15:00:00
10:30 PM,78.8,77.0,94,29.68,4.3,West,6.9,-,N/A,Rain,Light Rain,270,2013-09-19 15:30:00
11:00 PM,78.8,77.0,94,29.68,3.1,NW,9.2,-,N/A,Rain,Light Rain,320,2013-09-19 16:00:00
11:30 PM,78.8,77.0,94,29.68,3.7,NW,9.2,-,N/A,Rain,Light Rain,320,2013-09-19 16:30:00